Location: Hope
(40.9110°N, 74.9680°W)
Time: 04:34:46
(UTC-04:00)

ISS - Visible Passes

Search period start: 11 May 2021 00:00
Search period end: 21 May 2021 00:00
Orbit: 418 x 421 km, 51.6° (Epoch: 11 May)

Date Brightness Start Highest point End Pass type
(mag) Time Alt. Az. Time Alt. Az. Time Alt. Az.
11 May -0.7 02:16:04 13° NNW 02:16:48 14° N 02:18:40 10° NNE visible
11 May -0.8 03:52:18 10° NNW 03:54:39 17° NNE 03:57:00 10° ENE visible
12 May -0.5 01:29:58 14° N 01:29:58 14° N 01:31:13 10° NNE visible
12 May -0.6 03:04:56 10° NNW 03:06:59 15° N 03:09:02 10° NE visible
12 May -2.3 04:41:17 10° NW 04:44:30 40° NNE 04:47:42 10° E visible
13 May -0.3 00:43:47 10° NNE 00:43:47 10° NNE 00:43:52 10° NNE visible
13 May -0.5 02:17:28 10° NNW 02:19:17 14° N 02:21:06 10° NE visible
13 May -1.6 03:53:58 10° NW 03:56:57 28° NNE 03:59:55 10° E visible
13 May -1.1 22:13:24 10° SW 22:13:28 10° SW 22:13:28 10° SW visible
14 May -0.4 01:30:09 11° NNW 01:31:35 13° N 01:33:19 10° NNE visible
14 May -1.1 03:06:40 10° NNW 03:09:21 21° NNE 03:12:02 10° ENE visible
14 May -3.9 04:43:05 10° WNW 04:46:28 76° SW 04:49:50 10° SE visible
14 May -3.3 21:26:13 10° SSW 21:29:22 39° SE 21:32:32 10° ENE visible
14 May -1.8 23:03:14 10° W 23:06:14 30° NNW 23:09:15 10° NE visible
15 May -0.5 00:42:02 10° NW 00:43:52 14° N 00:45:43 10° NNE visible
15 May -0.8 02:19:21 10° NNW 02:21:43 17° NNE 02:24:04 10° ENE visible
15 May -3.3 03:55:40 10° NW 03:59:02 64° NE 04:02:23 10° ESE visible
15 May -2.5 20:39:21 10° S 20:42:04 23° SE 20:44:46 10° E visible
15 May -2.5 22:15:29 10° WSW 22:18:42 43° NNW 22:21:56 10° NE visible
15 May -0.6 23:54:05 10° NW 23:56:10 15° N 23:58:16 10° NNE visible
16 May -0.6 01:32:00 10° NNW 01:34:02 15° N 01:36:05 10° NE visible
16 May -2.4 03:08:19 10° NW 03:11:32 40° NNE 03:14:44 10° ESE visible
16 May -2.7 04:45:24 10° WNW 04:48:13 25° SW 04:51:02 10° S visible
16 May -3.5 21:27:52 10° WSW 21:31:13 69° NNW 21:34:34 10° NE visible
16 May -0.8 23:06:06 10° WNW 23:08:30 18° NNW 23:10:54 10° NNE visible
17 May -0.5 00:44:31 10° NNW 00:46:20 14° N 00:48:08 10° NE visible
17 May -0.9 02:21:00 10° NW 02:26:40 12° E 02:26:58 10° E visible
17 May -3.5 04:00:14 37° WSW 04:00:53 42° SW 04:04:06 10° SSE visible
17 May -3.8 20:40:27 10° SW 20:43:46 70° SE 20:47:07 10° ENE visible
17 May -1.1 22:18:09 10° WNW 22:20:52 22° NNW 22:23:36 10° NNE visible
17 May -0.4 23:56:53 10° NNW 23:58:37 13° N 00:00:21 10° NNE visible
18 May -0.7 01:33:42 10° NNW 01:34:31 14° NNW 01:34:31 14° NNW visible
18 May -1.6 21:30:16 10° W 21:33:16 29° NNW 21:36:17 10° NE visible
18 May -0.5 23:09:04 10° NW 23:10:54 14° N 23:12:44 10° NNE visible
19 May -0.8 00:46:23 10° NNW 00:48:12 17° N 00:48:12 17° N visible
19 May -2.3 20:42:31 10° WSW 20:45:43 42° NNW 20:48:58 10° NE visible
19 May -0.6 22:21:08 10° NW 22:23:12 15° N 22:25:16 10° NNE visible
19 May -0.8 23:59:01 10° NNW 00:01:04 15° N 00:02:03 14° NNE visible
20 May -0.8 21:33:08 10° WNW 21:35:31 18° NNW 21:37:55 10° NNE visible
20 May -0.7 23:11:32 10° NNW 23:13:21 14° N 23:15:10 10° NE visible
